Andrews, TX

2:44 PM CDT on June 18, 2018 (GMT -0500)
Andrews

Weather History for KE11 - August, 2012

Change the Weather History Date:

Thursday, August 23, 2012

  Actual Average (KMAF) Record (KMAF)
Temperature  
Mean Temperature 81 °F -  
Max Temperature 92 °F 90 °F 106 °F (1977)
Min Temperature 70 °F 67 °F 61 °F (1961)
Cooling Degree Days 16    
Growing Degree Days 31 (Base 50)    
Moisture  
Dew Point 60 °F    
Average Humidity 51    
Maximum Humidity 86    
Minimum Humidity 30    
Precipitation  
Precipitation 0.02 in - - ()
Sea Level Pressure  
Sea Level Pressure 30.01 in    
Wind  
Wind Speed 10 mph ()    
Max Wind Speed 18 mph    
Max Gust Speed 26 mph    
Visibility 10.0 miles    
Events Rain , Thunderstorm    
Averages and records for this station are not official NWS values.
T = Trace of Precipitation, MM = Missing Value Source: Averaged Metar Reports

Daily Weather History Graph

Daily Weather History Graph

Search for Another Location

Airport or City:

Astronomy

Aug. 23, 2012 Rise Set
Actual Time 7:19 AM CDT 8:24 PM CDT
Civil Twilight 6:54 AM CDT 8:50 PM CDT
Nautical Twilight 6:24 AM CDT 9:20 PM CDT
Astronomical Twilight 5:53 AM CDT 9:51 PM CDT
Moon 1:42 PM CDT (8/23) No Moon Set
Length of Visible Light 13h 55m
Length of Day
13h 05m
Waxing Crescent, 40% of the Moon is Illuminated
Aug 23
Waxing Crescent
Aug 24
First Quarter
Aug 31
Full
Sep 8
Last Quarter
Sep 15
New

Hourly Weather History & Observations

Time (CDT) Temp. Heat Index Dew Point Humidity Pressure Visibility Wind Dir Wind Speed Gust Speed Precip Events Conditions
12:15 AM 77.5 °F - 61.2 °F 57% 30.04 in 10.0 mi SSE 6.9 mph - N/A   Clear
12:35 AM 78.4 °F - 59.4 °F 52% 30.03 in 10.0 mi SSE 8.1 mph - N/A   Clear
12:55 AM 78.8 °F - 58.8 °F 50% 30.03 in 10.0 mi South 8.1 mph - N/A   Clear
1:15 AM 78.8 °F - 58.5 °F 50% 30.03 in 10.0 mi South 9.2 mph - N/A   Clear
1:35 AM 79.0 °F - 58.8 °F 50% 30.03 in 10.0 mi South 10.4 mph 17.3 mph N/A   Clear
1:55 AM 78.8 °F - 59.5 °F 52% 30.03 in 10.0 mi South 12.7 mph 17.3 mph N/A   Clear
2:15 AM 78.4 °F - 59.5 °F 52% 30.03 in 10.0 mi South 10.4 mph 20.7 mph N/A   Clear
2:35 AM 78.4 °F - 59.4 °F 52% 30.03 in 10.0 mi South 11.5 mph 19.6 mph N/A   Clear
3:15 AM 78.1 °F - 59.9 °F 53% 30.02 in 10.0 mi South 11.5 mph 19.6 mph N/A   Clear
3:35 AM 77.9 °F - 59.9 °F 54% 30.02 in 10.0 mi South 11.5 mph 16.1 mph N/A   Clear
3:55 AM 77.7 °F - 60.1 °F 54% 30.02 in 10.0 mi South 11.5 mph 18.4 mph N/A   Clear
4:15 AM 77.5 °F - 60.3 °F 55% 30.02 in 10.0 mi South 15.0 mph 19.6 mph N/A   Clear
4:35 AM 77.4 °F - 60.3 °F 55% 30.02 in 10.0 mi South 13.8 mph 19.6 mph N/A   Clear
4:55 AM 77.2 °F - 60.4 °F 56% 30.02 in 10.0 mi South 16.1 mph 20.7 mph N/A   Scattered Clouds
5:15 AM 77.0 °F - 60.4 °F 56% 30.03 in 10.0 mi South 10.4 mph 18.4 mph N/A   Scattered Clouds
5:35 AM 76.6 °F - 60.4 °F 57% 30.03 in 10.0 mi South 11.5 mph 20.7 mph N/A   Mostly Cloudy
5:55 AM 76.6 °F - 60.6 °F 58% 30.04 in 10.0 mi South 12.7 mph 21.9 mph N/A   Mostly Cloudy
6:15 AM 76.3 °F - 60.8 °F 59% 30.05 in 10.0 mi SSW 8.1 mph - N/A   Overcast
6:35 AM 75.9 °F - 61.3 °F 60% 30.06 in 10.0 mi SSW 6.9 mph - N/A   Overcast
6:55 AM 74.7 °F - 62.8 °F 66% 30.06 in 10.0 mi Calm Calm - N/A   Drizzle
7:15 AM 71.8 °F - 64.9 °F 79% 30.06 in 7.0 mi South 5.8 mph - 0.01 in Rain Light Rain
7:35 AM 70.5 °F - 66.0 °F 86% 30.05 in 10.0 mi South 6.9 mph - 0.01 in Rain Light Rain
7:55 AM 70.9 °F - 65.1 °F 82% 30.04 in 10.0 mi SE 8.1 mph - 0.01 in Rain Light Rain
8:15 AM 71.1 °F - 64.4 °F 79% 30.05 in 10.0 mi SE 4.6 mph - N/A   Overcast
8:35 AM 71.1 °F - 65.7 °F 83% 30.06 in 10.0 mi ESE 4.6 mph - N/A   Overcast
8:55 AM 71.2 °F - 64.6 °F 79% 30.05 in 10.0 mi SSE 9.2 mph - N/A Rain Light Rain
9:15 AM 71.8 °F - 64.4 °F 77% 30.04 in 10.0 mi South 9.2 mph 16.1 mph N/A   Mostly Cloudy
9:35 AM 72.1 °F - 64.4 °F 77% 30.05 in 10.0 mi South 9.2 mph - N/A   Mostly Cloudy
9:55 AM 72.5 °F - 64.4 °F 76% 30.06 in 10.0 mi South 11.5 mph - N/A   Overcast
10:15 AM 73.2 °F - 64.6 °F 74% 30.06 in 10.0 mi South 11.5 mph 19.6 mph N/A   Mostly Cloudy
10:35 AM 73.9 °F - 65.1 °F 74% 30.06 in 10.0 mi South 13.8 mph 18.4 mph N/A   Clear
10:55 AM 74.8 °F - 64.8 °F 71% 30.06 in 10.0 mi South 15.0 mph 18.4 mph N/A   Clear
11:15 AM 76.3 °F - 64.6 °F 67% 30.06 in 10.0 mi South 13.8 mph 20.7 mph N/A   Scattered Clouds
11:35 AM 78.1 °F - 64.6 °F 63% 30.06 in 10.0 mi South 15.0 mph 20.7 mph N/A   Scattered Clouds
11:55 AM 81.0 °F 82.6 °F 64.6 °F 57% 30.05 in 10.0 mi South 13.8 mph 19.6 mph N/A   Scattered Clouds
12:15 PM 82.8 °F 84.2 °F 64.0 °F 53% 30.05 in 10.0 mi South 15.0 mph 21.9 mph N/A   Scattered Clouds
12:35 PM 82.8 °F 84.0 °F 63.3 °F 52% 30.05 in 10.0 mi South 13.8 mph 19.6 mph N/A   Overcast
12:55 PM 83.1 °F 84.2 °F 63.3 °F 51% 30.04 in 10.0 mi South 17.3 mph 20.7 mph N/A   Overcast
1:15 PM 83.3 °F 84.1 °F 62.2 °F 49% 30.04 in 10.0 mi South 15.0 mph 21.9 mph N/A   Mostly Cloudy
1:35 PM 83.5 °F 84.1 °F 61.9 °F 48% 30.03 in 10.0 mi South 13.8 mph 20.7 mph N/A   Overcast
1:55 PM 84.7 °F 85.2 °F 62.1 °F 46% 30.03 in 10.0 mi South 13.8 mph 19.6 mph N/A   Mostly Cloudy
2:15 PM 85.6 °F 86.3 °F 62.6 °F 46% 30.03 in 10.0 mi South 10.4 mph 18.4 mph N/A   Scattered Clouds
2:35 PM 87.3 °F 87.5 °F 61.9 °F 42% 30.02 in 10.0 mi South 11.5 mph 19.6 mph N/A   Clear
2:55 PM 88.3 °F 88.1 °F 60.6 °F 39% 30.01 in 10.0 mi South 13.8 mph 20.7 mph N/A   Clear
3:15 PM 90.9 °F 90.3 °F 59.4 °F 35% 30.00 in 10.0 mi South 12.7 mph 21.9 mph N/A   Clear
3:35 PM 90.5 °F 90.1 °F 59.9 °F 36% 29.99 in 10.0 mi South 13.8 mph 21.9 mph N/A   Clear
3:55 PM 90.3 °F 89.6 °F 58.8 °F 35% 29.99 in 10.0 mi SSE 12.7 mph 23.0 mph N/A   Scattered Clouds
4:15 PM 92.1 °F 91.7 °F 59.7 °F 34% 29.97 in 10.0 mi South 15.0 mph 21.9 mph N/A   Overcast
4:35 PM 92.5 °F 91.6 °F 58.6 °F 32% 29.96 in 10.0 mi SSE 16.1 mph 23.0 mph N/A   Mostly Cloudy
4:55 PM 92.3 °F 91.0 °F 57.9 °F 31% 29.96 in 10.0 mi South 17.3 mph 24.2 mph N/A   Scattered Clouds
5:15 PM 92.5 °F 91.0 °F 57.2 °F 30% 29.95 in 10.0 mi SSE 13.8 mph 24.2 mph N/A   Scattered Clouds
5:35 PM 92.1 °F 90.8 °F 57.4 °F 31% 29.94 in 10.0 mi South 15.0 mph 20.7 mph N/A   Clear
5:55 PM 92.1 °F 90.5 °F 56.8 °F 30% 29.94 in 10.0 mi South 15.0 mph 24.2 mph N/A   Clear
6:15 PM 91.6 °F 89.8 °F 56.3 °F 30% 29.94 in 10.0 mi South 12.7 mph 23.0 mph N/A   Clear
6:35 PM 90.5 °F 89.0 °F 56.5 °F 32% 29.93 in 10.0 mi SE 13.8 mph 19.6 mph N/A   Clear
6:55 PM 89.8 °F 88.1 °F 56.3 °F 32% 29.93 in 10.0 mi South 12.7 mph 18.4 mph N/A   Clear
7:15 PM 90.1 °F 88.6 °F 56.3 °F 32% 29.92 in 10.0 mi SSE 13.8 mph 20.7 mph N/A   Clear
7:35 PM 88.9 °F 87.3 °F 56.3 °F 33% 29.92 in 10.0 mi SSE 12.7 mph 17.3 mph N/A   Clear
7:55 PM 88.2 °F 86.7 °F 56.1 °F 34% 29.92 in 10.0 mi SSE 15.0 mph 20.7 mph N/A   Clear
8:15 PM 87.3 °F 85.3 °F 53.8 °F 32% 29.93 in 10.0 mi South 10.4 mph 17.3 mph N/A   Clear
8:35 PM 86.4 °F 84.4 °F 53.2 °F 32% 29.94 in 10.0 mi South 10.4 mph - N/A   Clear
8:55 PM 85.5 °F - 52.9 °F 33% 29.95 in 10.0 mi South 9.2 mph - N/A   Clear
9:15 PM 84.6 °F 83.1 °F 54.0 °F 35% 29.95 in 10.0 mi SSE 6.9 mph - N/A   Clear
9:35 PM 84.0 °F 82.7 °F 54.7 °F 36% 29.95 in 10.0 mi SSE 6.9 mph - N/A   Clear
9:55 PM 82.4 °F 81.9 °F 56.3 °F 41% 29.96 in 10.0 mi SE 5.8 mph - N/A   Clear
10:15 PM 82.4 °F 82.2 °F 57.6 °F 43% 29.97 in 10.0 mi SE 5.8 mph - N/A   Clear
10:35 PM 83.3 °F 82.8 °F 57.2 °F 41% 29.97 in 10.0 mi SSE 10.4 mph - N/A   Scattered Clouds
10:55 PM 83.5 °F 82.8 °F 56.7 °F 40% 29.97 in 10.0 mi South 9.2 mph - N/A   Scattered Clouds
11:15 PM 83.5 °F 82.6 °F 55.9 °F 39% 29.98 in 10.0 mi South 6.9 mph - N/A Thunderstorm Scattered Clouds
11:35 PM 81.1 °F 81.4 °F 58.8 °F 46% 30.01 in 10.0 mi WNW 18.4 mph 26.5 mph N/A Rain , Thunderstorm Rain
11:55 PM 74.1 °F - 63.1 °F 68% 30.03 in 10.0 mi West 15.0 mph 21.9 mph 0.01 in Rain Light Rain